User: anonymous   Login
Location: Unspecified
(0.0000°N, 0.0000°E)
Time: 01:27:54
(UTC+00:00)
Language:

Envisat - Orbit

View from above orbital plane
View from above orbital plane
View from above satellite
View from above satellite

Ground track
Ground track

The orbit data is extracted from the following two-line orbital elements,

1 27386U 02009A   20049.83290233  .00000012  00000-0  17348-4 0  9992
2 27386  98.1399  63.1526 0001186  93.6324  79.6915 14.37971675941420
Epoch (UTC): 18 February 2020 19:59:22
Eccentricity: 0.0001186
inclination: 98.1399°
perigee height: 764 km
apogee height: 766 km
right ascension of ascending node: 63.1526°
argument of perigee: 93.6324°
revolutions per day: 14.37971675
mean anomaly at epoch: 79.6915°
orbit number at epoch: 94142

The dashed part of the orbit path shows where the satellite is in the earth's shadow,  

DLR